When you browse on this site, cookies collect data to enhance your experience and personalize the content and advertising you see.
Visit our Privacy Policy to learn more. By continuing to use the site, you agree to this use of cookies and data.
  • In United Kingdom
  • List of Countries
  • For 7 days
  • Water Temperature
  • Weather Map
  • Weather Widgets
  • user-avatar
    Login

    Hourly Weather Birkenhead

    Today, 2 June, Tuesday

    Time Temperature Precipitation Wind Pressure Humidity
    00:00 +14°C° 0 mm 2 mps 766 mmHg 79%
    01:00 +13°C° 0 mm 2 mps 766 mmHg 79%
    02:00 +13°C° 0 mm 2 mps 766 mmHg 80%
    03:00 +12°C° 0 mm 1 mps 766 mmHg 80%
    04:00 +13°C° 0 mm 1 mps 766 mmHg 78%
    05:00 +14°C° 0 mm 1 mps 765 mmHg 75%
    06:00 +14°C° 0 mm 1 mps 765 mmHg 73%
    07:00 +16°C° 0 mm 1 mps 765 mmHg 66%
    08:00 +18°C° 0 mm 1 mps 765 mmHg 60%
    09:00 +20°C° 0 mm 1 mps 765 mmHg 54%
    10:00 +21°C° 0 mm 1 mps 764 mmHg 51%
    11:00 +21°C° 0 mm 2 mps 764 mmHg 47%
    12:00 +23°C° 0 mm 2 mps 764 mmHg 44%
    13:00 +22°C° 0 mm 3 mps 763 mmHg 46%
    14:00 +21°C° 0 mm 3 mps 762 mmHg 48%
    15:00 +21°C° 0 mm 4 mps 762 mmHg 49%
    16:00 +21°C° 0 mm 3 mps 761 mmHg 53%
    17:00 +20°C° 0 mm 3 mps 761 mmHg 57%
    18:00 +19°C° 0 mm 3 mps 760 mmHg 61%
    19:00 +18°C° 0 mm 3 mps 760 mmHg 63%
    20:00 +17°C° 0 mm 3 mps 760 mmHg 64%
    21:00 +15°C° 0 mm 2 mps 760 mmHg 66%
    22:00 +14°C° 0 mm 3 mps 759 mmHg 68%
    23:00 +14°C° 0 mm 3 mps 759 mmHg 70%

    Tomorrow, 3 June, Wednesday

    Time Temperature Precipitation Wind Pressure Humidity
    00:00 +14°C° 0 mm 3 mps 758 mmHg 72%
    01:00 +14°C° 0.1 mm 3 mps 758 mmHg 76%
    02:00 +14°C° 0.1 mm 4 mps 757 mmHg 80%
    03:00 +13°C° 0.1 mm 4 mps 757 mmHg 85%
    04:00 +13°C° 0.5 mm 4 mps 757 mmHg 87%
    05:00 +13°C° 0.5 mm 3 mps 757 mmHg 90%
    06:00 +12°C° 0.5 mm 3 mps 756 mmHg 92%
    07:00 +12°C° 0.5 mm 4 mps 757 mmHg 90%
    08:00 +13°C° 0.5 mm 4 mps 757 mmHg 88%
    09:00 +13°C° 0.5 mm 5 mps 757 mmHg 86%
    10:00 +13°C° 0.1 mm 5 mps 757 mmHg 83%
    11:00 +13°C° 0.1 mm 5 mps 757 mmHg 80%
    12:00 +14°C° 0.1 mm 5 mps 757 mmHg 77%
    13:00 +14°C° 0.1 mm 5 mps 757 mmHg 77%
    14:00 +13°C° 0.1 mm 4 mps 757 mmHg 77%
    15:00 +13°C° 0.1 mm 3 mps 757 mmHg 78%
    16:00 +13°C° 0.1 mm 4 mps 757 mmHg 77%
    17:00 +13°C° 0.1 mm 5 mps 757 mmHg 77%
    18:00 +14°C° 0.1 mm 6 mps 756 mmHg 76%
    19:00 +13°C° 0 mm 6 mps 757 mmHg 76%
    20:00 +12°C° 0 mm 5 mps 757 mmHg 76%
    21:00 +12°C° 0 mm 5 mps 757 mmHg 75%
    22:00 +11°C° 0 mm 4 mps 757 mmHg 74%
    23:00 +11°C° 0 mm 4 mps 757 mmHg 72%

    Day after tomorrow, 4 June, Thursday

    Time Temperature Precipitation Wind Pressure Humidity
    00:00 +11°C° 0 mm 3 mps 757 mmHg 71%
    01:00 +10°C° 0 mm 3 mps 756 mmHg 73%
    02:00 +9°C° 0 mm 2 mps 756 mmHg 75%
    03:00 +8°C° 0 mm 2 mps 755 mmHg 76%
    04:00 +9°C° 0 mm 2 mps 755 mmHg 75%
    05:00 +9°C° 0 mm 2 mps 755 mmHg 73%
    06:00 +10°C° 0 mm 2 mps 754 mmHg 72%
    07:00 +10°C° 0.1 mm 2 mps 754 mmHg 72%
    08:00 +10°C° 0.1 mm 2 mps 754 mmHg 72%
    09:00 +12°C° 0.1 mm 2 mps 753 mmHg 72%
    10:00 +12°C° 0.1 mm 3 mps 753 mmHg 67%
    11:00 +13°C° 0.1 mm 4 mps 753 mmHg 62%
    12:00 +14°C° 0.1 mm 4 mps 752 mmHg 57%
    13:00 +14°C° 0.1 mm 5 mps 752 mmHg 59%
    14:00 +14°C° 0.1 mm 6 mps 751 mmHg 61%
    15:00 +14°C° 0.1 mm 6 mps 751 mmHg 63%
    16:00 +14°C° 0.3 mm 6 mps 751 mmHg 66%
    17:00 +13°C° 0.3 mm 6 mps 751 mmHg 69%
    18:00 +13°C° 0.3 mm 6 mps 750 mmHg 72%
    19:00 +12°C° 0.3 mm 5 mps 751 mmHg 76%
    20:00 +11°C° 0.3 mm 4 mps 751 mmHg 79%
    21:00 +10°C° 0.3 mm 3 mps 751 mmHg 82%
    22:00 +9°C° 0 mm 3 mps 751 mmHg 81%
    23:00 +8°C° 0 mm 2 mps 751 mmHg 79%

    5 June, Friday

    Time Temperature Precipitation Wind Pressure Humidity
    00:00 +9°C° 0 mm 1 mps 751 mmHg 78%
    01:00 +8°C° 0 mm 1 mps 751 mmHg 79%
    02:00 +8°C° 0 mm 1 mps 751 mmHg 79%
    03:00 +8°C° 0 mm 1 mps 751 mmHg 80%
    04:00 +8°C° 0 mm 1 mps 751 mmHg 80%
    05:00 +8°C° 0 mm 2 mps 751 mmHg 79%
    06:00 +9°C° 0 mm 2 mps 751 mmHg 79%
    07:00 +10°C° 0.1 mm 3 mps 751 mmHg 76%
    08:00 +10°C° 0.1 mm 5 mps 750 mmHg 74%
    09:00 +11°C° 0.1 mm 6 mps 750 mmHg 71%
    10:00 +12°C° 0 mm 7 mps 750 mmHg 65%
    11:00 +12°C° 0 mm 7 mps 750 mmHg 59%
    12:00 +13°C° 0 mm 8 mps 750 mmHg 53%
    13:00 +14°C° 0 mm 7 mps 749 mmHg 54%
    14:00 +14°C° 0 mm 7 mps 749 mmHg 56%
    15:00 +14°C° 0 mm 7 mps 748 mmHg 57%
    16:00 +13°C° 0.2 mm 6 mps 748 mmHg 65%
    17:00 +12°C° 0.2 mm 5 mps 748 mmHg 74%
    18:00 +12°C° 0.2 mm 4 mps 748 mmHg 82%
    19:00 +11°C° 0.4 mm 4 mps 748 mmHg 84%
    20:00 +11°C° 0.4 mm 4 mps 748 mmHg 86%
    21:00 +11°C° 0.4 mm 4 mps 748 mmHg 88%
    22:00 +11°C° 0.2 mm 4 mps 748 mmHg 88%
    23:00 +10°C° 0.2 mm 4 mps 748 mmHg 89%

    6 June, Saturday

    Time Temperature Precipitation Wind Pressure Humidity
    00:00 +9°C° 0.2 mm 5 mps 748 mmHg 89%
    01:00 +9°C° 0.4 mm 5 mps 749 mmHg 88%
    02:00 +9°C° 0.4 mm 5 mps 749 mmHg 87%
    03:00 +9°C° 0.4 mm 5 mps 749 mmHg 86%
    04:00 +9°C° 0.3 mm 6 mps 749 mmHg 84%
    05:00 +8°C° 0.3 mm 7 mps 750 mmHg 81%
    06:00 +8°C° 0.3 mm 7 mps 750 mmHg 79%
    07:00 +9°C° 0.1 mm 8 mps 750 mmHg 72%
    08:00 +10°C° 0.1 mm 8 mps 750 mmHg 65%
    09:00 +10°C° 0.1 mm 8 mps 750 mmHg 58%
    10:00 +11°C° 0.2 mm 8 mps 750 mmHg 56%
    11:00 +11°C° 0.2 mm 9 mps 750 mmHg 54%
    12:00 +11°C° 0.2 mm 9 mps 750 mmHg 53%
    13:00 +11°C° 0.1 mm 10 mps 750 mmHg 52%
    14:00 +11°C° 0.1 mm 10 mps 750 mmHg 51%
    15:00 +11°C° 0.1 mm 10 mps 750 mmHg 51%
    16:00 +9°C° 0.1 mm 10 mps 750 mmHg 53%
    17:00 +9°C° 0.1 mm 10 mps 750 mmHg 55%
    18:00 +8°C° 0.1 mm 10 mps 751 mmHg 58%
    19:00 +8°C° 0.1 mm 10 mps 751 mmHg 61%
    20:00 +7°C° 0.1 mm 10 mps 751 mmHg 64%
    21:00 +7°C° 0.1 mm 10 mps 751 mmHg 67%
    22:00 +7°C° 0.1 mm 10 mps 751 mmHg 69%
    23:00 +6°C° 0.1 mm 10 mps 751 mmHg 70%

    7 June, Sunday

    Time Temperature Precipitation Wind Pressure Humidity
    00:00 +6°C° 0.1 mm 10 mps 751 mmHg 71%
    01:00 +6°C° 0.2 mm 10 mps 751 mmHg 72%
    02:00 +6°C° 0.2 mm 10 mps 751 mmHg 73%
    03:00 +6°C° 0.2 mm 10 mps 751 mmHg 74%
    04:00 +6°C° 0.2 mm 10 mps 751 mmHg 74%
    05:00 +6°C° 0.2 mm 10 mps 751 mmHg 74%
    06:00 +6°C° 0.2 mm 10 mps 752 mmHg 74%
    07:00 +7°C° 0.2 mm 10 mps 752 mmHg 72%
    08:00 +7°C° 0.2 mm 10 mps 752 mmHg 70%
    09:00 +8°C° 0.2 mm 10 mps 753 mmHg 68%
    10:00 +8°C° 0.2 mm 10 mps 753 mmHg 65%
    11:00 +9°C° 0.2 mm 10 mps 753 mmHg 61%
    12:00 +10°C° 0.2 mm 9 mps 753 mmHg 57%
    13:00 +11°C° 0.2 mm 9 mps 754 mmHg 55%
    14:00 +11°C° 0.2 mm 9 mps 754 mmHg 54%
    15:00 +11°C° 0.2 mm 9 mps 754 mmHg 53%
    16:00 +11°C° 0.2 mm 8 mps 754 mmHg 54%
    17:00 +11°C° 0.2 mm 8 mps 754 mmHg 56%
    18:00 +11°C° 0.2 mm 7 mps 754 mmHg 58%
    19:00 +9°C° 0.1 mm 7 mps 755 mmHg 62%
    20:00 +8°C° 0.1 mm 6 mps 755 mmHg 67%
    21:00 +7°C° 0.1 mm 5 mps 755 mmHg 71%
    22:00 +7°C° 0 mm 5 mps 755 mmHg 73%
    23:00 +6°C° 0 mm 5 mps 755 mmHg 75%
    Show more